Home > Weather > Harstad > Past weeks

Flag for Norway Past Weather in Harstad, Norway — Yesterday and Last 2 Weeks

Now
50 °F

Partly sunny.


Feels Like: 46 °F
Forecast: 46 / 52 °F
Wind: 9 mph from West

Location: Evenes

Current Time: Aug 28, 2016 at 2:32:28 PM

Latest Report: Aug 28, 2016 at 12:50 PM


Visibility: N/A

Pressure: 30.07 "Hg

Humidity: 67%

Dew Point: 39 °F

Location of HarstadLocation

Past Weather in Harstad — Graph

°F

Harstad Temperature Yesterday

Maximum temperature yesterday: 50 °F (at 12:20 AM)
Minimum temperature yesterday: 43 °F (at 8:50 PM)
Average temperature yesterday: 48 °F

High & Low Weather Summary for the Past Weeks

 TemperatureHumidityPressure
High73 °F (Aug 18, 4:50 PM)100% (Aug 15, 12:50 AM)30.30 "Hg (Aug 15, 12:50 AM)
Low37 °F (Aug 15, 4:20 AM)41% (Aug 18, 4:50 PM)29.50 "Hg (Aug 27, 5:50 AM)
Average53 °F80%30.02 "Hg
* Reported Aug 13 12:50 PM — Aug 28 12:50 PM, Harstad, Weather by CustomWeather, © 2016

Note: Actual official high and low records may vary slightly from our data, if they occured in-between our weather recording intervals... More about our weather records

Advertising

Harstad Weather History for the Previous 24 Hours

Scroll right to see more
 ConditionsComfort  
Time TempWeatherWind HumidityBarometerVisibility
12:50 PM
Sun, Aug 28
50 °FPartly sunny.9 mph67%30.07 "HgN/A
11:50 AM48 °FSprinkles. Partly sunny.7 mph76%30.07 "HgN/A
10:50 AM48 °FScattered showers. Partly sunny.8 mph76%30.07 "HgN/A
9:50 AM46 °FPartly sunny.8 mph76%30.07 "HgN/A
9:20 AM46 °FPartly sunny.10 mph76%30.04 "HgN/A
9:20 PM
Sat, Aug 27
43 °FScattered clouds.3 mph76%29.95 "HgN/A
8:50 PM43 °FSunny.6 mph76%29.92 "Hg10 mi
8:20 PM45 °FSunny.10 mph66%29.92 "Hg10 mi
7:50 PM46 °FSunny.16 mph66%29.89 "Hg10 mi
7:20 PM46 °FSunny.15 mph57%29.89 "Hg10 mi
6:50 PM48 °FPartly sunny.15 mph62%29.86 "HgN/A
6:20 PM48 °FPartly sunny.12 mph62%29.86 "HgN/A
5:50 PM48 °FMostly cloudy.13 mph62%29.83 "HgN/A
5:20 PM50 °FPartly sunny.12 mph62%29.83 "HgN/A
4:50 PM50 °FScattered clouds.14 mph62%29.80 "HgN/A
4:20 PM48 °FPassing clouds.14 mph66%29.80 "HgN/A
3:50 PM50 °FScattered showers. Broken clouds.15 mph62%29.77 "HgN/A
2:50 PM46 °FScattered showers. Partly sunny.15 mph82%29.74 "HgN/A
2:20 PM46 °FOvercast.17 mph87%29.71 "HgN/A
Weather by CustomWeather, © 2016

See weather overviewHow to use our weather pages